Showing default

ITALSAT 1, 21055

Orbit data source: Space-Track

ITALSAT 1, 21055 is a payload satellite owned by ASI (IT) in GEO that was launched on Tue, 15 Jan 1991 UTC via an ARIANE 44L launch vehicle from the French Guiana (FRGUI). Payload-class satellites include a variety of spacecraft equipped with specific instruments for various scientific and technological missions. These include communications satellites like Starlink; space stations such as the ISS; scientific satellites like the Hubble; Earth observation satellites from companies like Planet Labs, Umbra, and HawkEye 360; GPS; miniature CubeSats for education and research; and military/defense satellites.

Loading next visibility...
Identifier
21055, 1991-003A
Orbit
GEO
Country
Flag of ITIT
Related business
Manufacturer
Alenia Spazio
Mission
Civil Communications
Bus & Motor
ITALSAT, R-4D-11
Mass
1,865 kg wet, 950 kg dry
Launch date (UTC)
1991-01-15 (35 years ago)
Launch vehicle
ARIANE 44L
Launch site
French Guiana (FRGUI)
Object type
Payload
Rocket body
Debris
Shape & HBR
Hex Poly + 2 Pan, 10.9 m
Radar Cross Section
28.903 m², Large (>1 m²)

Expand to show TLE details & history
Last TLE update: 2 days ago

TLE from 2 days ago
0 ITALSAT 1
1 21055U 91003A   26171.18036248  .00000086  00000-0  00000-0 0  9999
2 21055  14.5485 351.4809 0013965  54.9781 140.3116  0.99963637117119
Epoch: 2026-06-20T04:19Z
TLE epoch observation values (Epoch: 2026-06-20T04:19:43.318Z)
Latitude
-3.83313°
Longitude
-146.91222°
Altitude
35,918.646 km
Speed
3.068 km/s
True Right ascension
12h 25m 40s
True Declination
-3° 49' 45"
Sunlit
Object was in daylight at epoch
Visualization orbit readout
Latitude
Unknown
Longitude
Unknown
Altitude
Unknown
Speed
Unknown
Apparent Right ascension
Unknown
Apparent Declination
Unknown
Sunlit
N/A
Visualization observer readout
Local Sidereal Time
00:39:50
Azimuth
Unknown
Elevation
Unknown
Doppler factor
Unknown
Orbital elements
Apogee altitude
35,933.177 km
Perigee altitude
35,815.166 km
Semi-major axis
42,252.308 km
Eccentricity
0.0014
Inclination
14.5485°
RAAN
351.4809°
Arg. of periapsis
54.9781°
True anomaly
140.41366°
Mean anomaly
140.3116°
Eccentric anomaly
140.36264°
Mean motion
0.2499 °/min
Orbital period
1,440.57 mins
BSTAR
0
Loading maneuver chart data...
Computing Atmospheric mass density...
Loading historical data...
Loading historical data...
Loading historical data...
Loading historical data...
Loading historical data...
Loading historical data...
Loading historical data...

Documentation

Showing up to 5 results
|